Flag for Germany Weather past 2 weeks in Greifswald, Mecklenburg-Western Pomerania, Germany

Now
76 °F

Partly sunny.


Feels Like: 78 °F
Forecast: 65 / 86 °F
Wind: 6 mph from Northeast

Location: Greifswald

Current Time: Jul 26, 2014 at 6:00:15 PM

Latest Report: Jul 26, 2014 at 4:00 PM


Visibility: 9 mi

Pressure: 29.95 "Hg

Humidity: 74%

Dew point: 68 °F

Location of GreifswaldLocation

Historic Weather in Greifswald — Graph

°F

Greifswald temperature yesterday

Maximum temperature yesterday: 75 °F (at 2:00 PM)
Minimum temperature yesterday: 67 °F (at 3:00 AM)
Average temperature yesterday: 72 °F

Past Weeks' High & Low Weather Summary

 TemperatureHumidityPressure
High76 °F (Jul 26, 4:00 PM)99% (Jul 19, 6:00 AM)30.22 "Hg (Jul 19, 6:00 AM)
Low56 °F (Jul 18, 5:00 AM)46% (Jul 15, 7:00 PM)29.69 "Hg (Jul 13, 7:00 PM)
Average67 °F80%30.01 "Hg
* Reported Jul 11 4:00 PM — Jul 26 4:00 PM, Greifswald, Weather by CustomWeather, © 2014

Note: Actual official high and low records may vary slightly from our data, if they occured in-between our weather recording intervals... More about our weather records

Advertising

Greifswald weather history for previous 24 hours

 ConditionsComfort  
Time TempWeatherWind HumidityBarometerVisibility
4:00 PM
Jul 26
76 °FPartly sunny.6 mph74%29.95 "Hg9 mi
3:00 PM75 °FPartly sunny.6 mph78%29.96 "Hg9 mi
2:00 PM76 °FPartly sunny.6 mph77%29.97 "Hg9 mi
1:00 PM75 °FPartly sunny.7 mph78%29.98 "Hg9 mi
12:00 PM74 °FPartly sunny.3 mph79%29.99 "Hg8 mi
11:00 AM75 °FPartly sunny.3 mph75%29.99 "Hg7 mi
10:00 AM72 °FScattered clouds.3 mph78%29.99 "Hg7 mi
9:00 AM70 °FPassing clouds.3 mph81%29.99 "Hg9 mi
8:00 AM69 °FScattered clouds.5 mph85%29.98 "Hg7 mi
7:00 AM65 °FPartly sunny.2 mph93%29.99 "Hg6 mi
6:00 AM64 °FFog.2 mph96%29.99 "Hg2 mi
5:00 AM65 °FPassing clouds.2 mph94%29.98 "Hg5 mi
4:00 AM64 °FOvercast.5 mph93%29.99 "Hg9 mi
3:00 AM64 °FLight rain. Overcast.2 mph94%30.00 "Hg6 mi
2:00 AM65 °FThundershowers. Overcast.6 mph91%30.01 "Hg2 mi
1:00 AM68 °FOvercast.5 mph82%30.01 "Hg12 mi
12:00 AM68 °FOvercast.3 mph81%30.01 "Hg12 mi
10:00 PM
Jul 25
69 °FOvercast.3 mph81%30.01 "Hg12 mi
9:00 PM72 °FOvercast.6 mph70%30.00 "Hg16 mi
8:00 PM72 °FOvercast.6 mph68%30.00 "Hg16 mi
7:00 PM73 °FOvercast.6 mph66%29.99 "Hg19 mi
6:00 PM75 °FOvercast.6 mph65%29.99 "Hg14 mi
Weather by CustomWeather, © 2014

See weather overviewHow to use our weather pages